TimeCST,TemperatureF,Dew PointF,Humidity,Sea Level PressureIn,VisibilityMPH,Wind Direction,Wind SpeedMPH,Gust SpeedMPH,PrecipitationIn,Events,Conditions,WindDirDegrees,DateUTC
12:52 AM,48.0,26.1,42,29.63,10.0,SSE,8.1,-,N/A,,Clear,150,2012-12-03 06:52:00
1:52 AM,46.9,24.1,41,29.61,10.0,SSW,11.5,-,N/A,,Clear,200,2012-12-03 07:52:00
2:52 AM,48.0,19.9,33,29.59,10.0,SSW,15.0,-,N/A,,Clear,210,2012-12-03 08:52:00
3:52 AM,46.9,18.0,32,29.60,10.0,SW,13.8,-,N/A,,Clear,220,2012-12-03 09:52:00
4:52 AM,44.1,18.0,35,29.60,10.0,SW,16.1,-,N/A,,Clear,220,2012-12-03 10:52:00
5:52 AM,42.1,17.1,37,29.62,10.0,SSW,13.8,-,N/A,,Clear,210,2012-12-03 11:52:00
6:52 AM,43.0,17.1,35,29.64,10.0,WSW,12.7,-,N/A,,Clear,240,2012-12-03 12:52:00
7:52 AM,48.0,19.0,32,29.69,10.0,WNW,18.4,-,N/A,,Clear,300,2012-12-03 13:52:00
8:52 AM,52.0,21.0,30,29.72,10.0,NNW,15.0,26.5,N/A,,Clear,340,2012-12-03 14:52:00
9:52 AM,54.0,24.1,31,29.78,10.0,NNW,15.0,21.9,N/A,,Clear,330,2012-12-03 15:52:00
10:52 AM,59.0,27.0,29,29.81,10.0,North,17.3,32.2,N/A,,Clear,350,2012-12-03 16:52:00
11:52 AM,64.0,30.0,28,29.83,10.0,North,29.9,39.1,N/A,,Clear,360,2012-12-03 17:52:00
12:52 PM,64.0,33.1,31,29.85,10.0,NNE,24.2,38.0,N/A,,Clear,20,2012-12-03 18:52:00
1:52 PM,64.9,33.1,31,29.86,10.0,North,27.6,33.4,N/A,,Clear,360,2012-12-03 19:52:00
2:52 PM,62.1,34.0,35,29.89,10.0,North,24.2,29.9,N/A,,Clear,10,2012-12-03 20:52:00
3:52 PM,59.0,36.0,42,29.94,10.0,North,20.7,27.6,N/A,,Clear,360,2012-12-03 21:52:00
4:52 PM,55.9,35.1,45,29.98,10.0,North,15.0,-,N/A,,Clear,10,2012-12-03 22:52:00
5:52 PM,53.1,34.0,48,30.02,10.0,North,9.2,-,N/A,,Partly Cloudy,360,2012-12-03 23:52:00
6:52 PM,51.1,32.0,48,30.06,10.0,North,8.1,-,N/A,,Partly Cloudy,10,2012-12-04 00:52:00
7:52 PM,50.0,32.0,50,30.08,10.0,North,8.1,-,N/A,,Clear,350,2012-12-04 01:52:00
8:52 PM,48.0,30.9,52,30.10,10.0,North,8.1,-,N/A,,Partly Cloudy,360,2012-12-04 02:52:00
9:52 PM,42.1,28.9,60,30.13,10.0,NW,8.1,-,N/A,,Partly Cloudy,320,2012-12-04 03:52:00
10:52 PM,39.0,28.0,65,30.15,10.0,NW,5.8,-,N/A,,Clear,320,2012-12-04 04:52:00
11:52 PM,37.9,28.0,68,30.15,10.0,NNW,4.6,-,N/A,,Clear,330,2012-12-04 05:52:00